[[{"header":{"parameterUnit":"m.s-1","parameterCategory":1,"la1":30.2992,"la2":30.254,"lo1":-89.0895,"lo2":-89.0443,"dy":0.0025,"dx":0.0025,"nx":19,"ny":19,"refTime":"2026-04-20T09:00:00:Z","depth":0,"parameterNumber":2,"parameterNumberName":"U-component_of_WINDS"},"data":[0,0,0,-3.5965,-3.5966,-3.6021,-3.6021,-3.6111,-3.6112,0,0,0,0,0,0,0,0,0,0,0,-3.5962,-3.5963,-3.5964,-3.5966,-3.6021,-3.6021,-3.6111,-3.6112,0,0,0,0,0,0,0,0,0,0,0,-3.5961,-3.5962,-3.5964,-3.5966,-3.6021,-3.6021,-3.611,-3.6062,0,0,0,0,0,0,0,0,0,0,-3.6005,-3.6015,-3.5962,-3.5964,-3.5967,-3.6021,-3.6021,-3.6059,-3.6065,-3.6095,0,-3.6126,0,-3.6121,-3.6119,-3.612,0,0,0,-3.5956,-3.6011,-3.6014,-3.5964,-3.5968,-3.6021,-3.5993,-3.6062,-3.6069,-3.6103,-3.6127,-3.613,-3.6122,-3.612,-3.6121,-3.6329,-3.6331,0,0,-3.5953,-3.5978,-3.6009,-3.6019,-3.6012,-3.5992,-3.5995,-3.6066,-3.6094,-3.6128,-3.6132,-3.6124,-3.6121,-3.6122,-3.6328,-3.633,0,0,0,-3.5951,-3.5977,-3.5977,-3.6016,-3.6024,-3.5993,-3.5997,-3.609,-3.6089,-3.6133,-3.6125,-3.6121,-3.6123,-3.6327,-3.6329,-3.6424,0,0,0,-3.5949,-3.5975,-3.5976,-3.5992,-3.6023,-3.6058,-3.6021,-3.6084,-3.6091,-3.6124,-3.6121,-3.6124,-3.6325,-3.6328,-3.6418,-3.6464,0,0,0,-3.5953,-3.5976,-3.5988,-3.5993,-3.6018,-3.6056,-3.6058,-3.6085,-3.6087,-3.612,-3.6124,-3.6324,-3.6327,-3.6412,-3.6455,-3.6526,0,0,0,-3.5965,-3.6072,-3.599,-3.6106,-3.6018,-3.6115,-3.6057,-3.6129,-3.6169,-3.6122,-3.6325,-3.6329,-3.641,-3.645,-3.652,-3.6589,-3.662,0,0,-3.6114,-3.6091,-3.6157,-3.6085,-3.6204,-3.6105,-3.6237,-3.625,-3.623,-3.6297,-3.6302,-3.642,-3.6454,-3.6524,-3.6789,-3.6814,0,0,0,-3.6212,-3.626,-3.6286,-3.6326,-3.6338,-3.6353,-3.6342,-3.6347,-3.6403,-3.627,-3.6464,-3.6484,-3.6524,-3.6556,-3.6577,-3.6609,-3.6345,-3.6344,-3.6344,-3.6457,-3.6427,-3.6534,-3.651,-3.6549,-3.6538,-3.6566,-3.657,-3.6528,-3.6575,-3.6594,-3.6758,-3.6796,-3.6812,-3.6846,-3.6629,-3.6629,-3.6629,-3.663,-3.6671,-3.6733,-3.6675,-3.6758,-3.6725,-3.6794,-3.6788,-3.6756,-3.6815,-3.6741,-3.6775,-3.6696,-3.6841,-3.6869,-3.6636,-3.6635,-3.6634,-3.6634,-3.6633,-3.6827,-3.6851,-3.6856,-3.6909,-3.6954,-3.6926,-3.6986,-3.6954,-3.6924,-3.6957,-3.6974,-3.6972,-3.6965,-3.6968,-3.6968,-3.6969,-3.6969,-3.697,-3.697,-3.6987,-3.6988,-3.7043,-3.7066,-3.7087,-3.711,-3.71,-3.712,-3.7133,-3.7105,-3.7104,-3.7057,-3.6861,-3.6812,-3.6979,-3.6977,-3.6976,-3.6975,-3.6975,-3.7213,-3.7156,-3.7241,-3.7262,-3.7286,-3.7332,-3.729,-3.7333,-3.7344,-3.7375,-3.7321,-3.7181,-3.7155,-3.7138,-3.7097,-3.7327,-3.7327,-3.7327,-3.7327,-3.7344,-3.7328,-3.7406,-3.7442,-3.7473,-3.7444,-3.754,-3.7533,-3.7518,-3.7523,-3.7485,-3.7428,-3.7412,-3.7395,-3.7373,-3.7333,-3.7619,-3.762,-3.762,-3.748,-3.7466,-3.7554,-3.7538,-3.7554,-3.7569,-3.7657,-3.77,-3.7671,-3.7631,-3.7526,-3.7513,-3.7421,-3.7393,-3.735,-3.7315,-3.7243,0,0]},{"header":{"parameterUnit":"m.s-1","parameterCategory":1,"la1":30.2992,"la2":30.254,"lo1":-89.0895,"lo2":-89.0443,"dy":0.0025,"dx":0.0025,"nx":19,"ny":19,"refTime":"2026-04-20T09:00:00:Z","depth":0,"parameterNumber":3,"parameterNumberName":"V-component_of_WINDS"},"data":[0,0,0,2.9164,2.9166,2.9247,2.9247,2.9353,2.9353,0,0,0,0,0,0,0,0,0,0,0,2.9142,2.9143,2.9164,2.9166,2.9247,2.9247,2.9352,2.9353,0,0,0,0,0,0,0,0,0,0,0,2.9142,2.9143,2.9144,2.9166,2.9247,2.9247,2.9352,2.929,0,0,0,0,0,0,0,0,0,0,2.921,2.9194,2.9143,2.9144,2.9167,2.9247,2.9247,2.9287,2.9294,2.9317,0,2.934,0,2.9349,2.9361,2.9361,0,0,0,2.9163,2.9188,2.9208,2.9144,2.9167,2.9247,2.921,2.9291,2.9298,2.9326,2.9341,2.9345,2.935,2.9361,2.9362,2.9508,2.9509,0,0,2.9159,2.9158,2.9202,2.9213,2.9203,2.9207,2.9212,2.9295,2.9311,2.9342,2.9347,2.9352,2.9362,2.9363,2.9507,2.9508,0,0,0,2.9148,2.9155,2.9173,2.9209,2.9224,2.921,2.9215,2.9307,2.9313,2.9349,2.9353,2.9363,2.9364,2.9506,2.9508,2.9546,0,0,0,2.9145,2.9148,2.9171,2.9171,2.9222,2.9267,2.9226,2.9308,2.9317,2.9353,2.9363,2.9365,2.9506,2.9507,2.9543,2.9563,0,0,0,2.9136,2.9147,2.916,2.9171,2.9206,2.9266,2.9276,2.931,2.932,2.9361,2.9366,2.9505,2.9507,2.954,2.9559,2.9601,0,0,0,2.9126,2.9192,2.9161,2.9237,2.9205,2.929,2.9276,2.9338,2.9378,2.9363,2.9506,2.9507,2.954,2.9557,2.9598,2.9635,2.9651,0,0,2.9209,2.9202,2.9247,2.9221,2.9311,2.9277,2.9373,2.9409,2.9413,2.9476,2.9479,2.9544,2.9559,2.96,2.9742,2.9755,0,0,0,2.9273,2.9305,2.9329,2.9368,2.94,2.9427,2.945,2.9464,2.9517,2.9446,2.9571,2.958,2.9604,2.9622,2.9633,2.9653,2.9516,2.9516,2.9516,2.9387,2.9391,2.9465,2.9478,2.9516,2.954,2.9571,2.9593,2.9584,2.9614,2.9631,2.9717,2.9738,2.9746,2.9767,2.9653,2.9653,2.9653,2.9653,2.9508,2.9553,2.9542,2.9609,2.9612,2.9668,2.9694,2.9686,2.9738,2.9704,2.9725,2.9687,2.9759,2.9778,2.9656,2.9655,2.9655,2.9655,2.9655,2.9581,2.9603,2.9621,2.9678,2.9722,2.9733,2.9784,2.9785,2.9785,2.9807,2.9825,2.9824,2.9822,2.9816,2.9816,2.9817,2.9817,2.9817,2.9817,2.965,2.9668,2.9712,2.9752,2.9777,2.9811,2.9836,2.9861,2.9888,2.9884,2.9884,2.9871,2.9767,2.974,2.9822,2.9821,2.982,2.982,2.982,2.9767,2.9741,2.9808,2.9834,2.9881,2.9924,2.9926,2.9976,2.9996,3.0021,3.0005,2.9928,2.992,2.9912,2.9889,3.0005,3.0005,3.0005,3.0005,2.9828,2.9825,2.9894,2.9936,2.9976,2.9985,3.0059,3.0079,3.0096,3.0109,3.0092,3.0063,3.0055,3.0052,3.004,3.0019,3.0165,3.0165,3.0165,2.99,2.9901,2.9965,2.9983,3.002,3.0051,3.0121,3.0167,3.0181,3.0172,3.0118,3.0111,3.0064,3.0049,3.0036,3.0018,2.9979,0,0]}]]